FENGYUN 2H

Last updated on Oct. 27, 2020, 5:52 a.m. UTC

1 43491U 18050A   20300.57425003 -.00000137  00000-0  00000-0 0  9998
2 43491   0.3529 267.5569 0003257 243.5350 170.0432  1.00268652  8859
UTC
Height (km)
Latitude
Longitude
Inclination
Orbital Period
UTC large
Height (km)
Speed (km/s)
/
Latitude / Longitude
Inclination (degrees)
Orbital Period (minutes)
Azimuth
Elevation
Range (km)
Doppler Factor
iOS Compass Heading
iOS Angle

Next 30 passes for location: Hong Kong

Rise time Rise Azimuth (degrees) Set time Set Azimuth (degrees) Duration Max altitude (degrees)

No matching passes for this satellites